Pond Inlet,

1:38 PM EDT on September 20, 2017 (GMT -0400)
Pond Inlet

Weather History for CYIO - January, 2013

Change the Weather History Date:

Wednesday, January 2, 2013

  Actual Average Record
Temperature  
Mean Temperature -29 °F -  
Max Temperature -27 °F -20 °F 12 °F (2001)
Min Temperature -31 °F -30 °F -43 °F (1998)
Degree Days  
Heating Degree Days 94    
Moisture  
Dew Point -37 °F    
Average Humidity 62    
Maximum Humidity 75    
Minimum Humidity 45    
Precipitation  
Precipitation 0.00 in - - ()
Sea Level Pressure  
Sea Level Pressure 29.77 in    
Wind  
Wind Speed 3 mph ()    
Max Wind Speed 6 mph    
Max Gust Speed -    
Visibility 11.7 miles    
Events      
Averages and records for this station are not official NWS values.
T = Trace of Precipitation, MM = Missing Value Source: Averaged Metar Reports

Daily Weather History Graph

Daily Weather History Graph

Search for Another Location

Airport or City:

Trip Planner

Search our weather history database for the weather conditions in past years. The results will help you decide how hot, cold, wet, or windy it might be!

Date:

Astronomy

Dec. 31, 1969 Rise Set
Actual Time Sun does not set Sun does not set
Civil Twilight 11:19 AM EST 1:13 PM EST
Nautical Twilight 8:41 AM EST 3:51 PM EST
Astronomical Twilight 7:08 AM EST 5:24 PM EST
Moon 10:26 PM EST (1/2) 10:39 AM EST (1/2)
Length of Visible Light 1h 53m
Length of Day
0h 00m
Waning Gibbous, 75% of the Moon is Illuminated
Jan 2
Waning Gibbous
Jan 4
Last Quarter
Jan 11
New
Jan 18
First Quarter
Jan 26
Full

Hourly Weather History & Observations

Time (EST) Temp. Windchill Dew Point Humidity Pressure Visibility Wind Dir Wind Speed Gust Speed Precip Events Conditions
12:00 AM -29.2 °F - -38.2 °F 62% 29.81 in 9.0 mi SSW 2.3 mph - N/A   Partly Cloudy
1:00 AM -30 °F - -37 °F 51% 29.80 in 9 mi South 4.6 mph - -  
1:00 AM -29.2 °F -44.0 °F -36.4 °F 68% 29.80 in 9.0 mi South 4.6 mph - N/A   Clear
2:00 AM -29.2 °F -41.2 °F -36.4 °F 68% 29.79 in 9.0 mi South 3.5 mph - N/A   Clear
3:00 AM -31.0 °F - -38.2 °F 68% 29.79 in 9.0 mi SSW 2.3 mph - N/A   Clear
5:00 AM -29.2 °F -46.2 °F -36.4 °F 68% 29.77 in 9.0 mi South 5.8 mph - N/A   Partly Cloudy
6:00 AM -29.2 °F -41.2 °F -36.4 °F 68% 29.77 in 9.0 mi SSW 3.5 mph - N/A   Partly Cloudy
7:00 AM -30 °F - -38 °F 48% 29.77 in 9 mi SSW 3.5 mph - -  
8:00 AM -29.2 °F - -38.2 °F 62% 29.76 in 9.0 mi SW 2.3 mph - N/A   Clear
9:00 AM -31.0 °F -43.3 °F -36.4 °F 75% 29.75 in 9.0 mi SSW 3.5 mph - N/A   Partly Cloudy
10:00 AM -30 °F - -38 °F 47% 29.76 in 9 mi South 3.5 mph - -  
10:00 AM -31.0 °F -43.3 °F -38.2 °F 68% 29.76 in 9.0 mi South 3.5 mph - N/A   Clear
11:00 AM -27.4 °F -39.2 °F -36.4 °F 62% 29.76 in 20.0 mi South 3.5 mph - N/A   Partly Cloudy
12:00 PM -29.2 °F - -36.4 °F 68% 29.76 in 20.0 mi Calm Calm - N/A   Partly Cloudy
1:00 PM -28 °F - -36 °F 48% 29.75 in 9 mi SSW 2.3 mph - -  
1:00 PM -27.4 °F - -36.4 °F 62% 29.75 in 20.0 mi SSW 2.3 mph - N/A   Partly Cloudy
2:00 PM -29.2 °F - -36.4 °F 68% 29.75 in 20.0 mi Calm Calm - N/A   Partly Cloudy
3:00 PM -27.4 °F - -34.6 °F 69% 29.76 in 20.0 mi Calm Calm - N/A   Partly Cloudy
4:00 PM -29 °F - -37 °F 45% 29.76 in 9 mi SSW 2.3 mph - -  
4:00 PM -29.2 °F - -38.2 °F 62% 29.76 in 20.0 mi South 2.3 mph - N/A   Partly Cloudy
5:00 PM -29.2 °F - -38.2 °F 62% 29.76 in 20.0 mi South 2.3 mph - N/A   Partly Cloudy
6:00 PM -31.0 °F -43.3 °F -36.4 °F 75% 29.77 in 9.0 mi South 3.5 mph - N/A   Partly Cloudy
7:00 PM -29 °F - -37 °F 47% 29.77 in 9 mi South 2.3 mph - -  
7:00 PM -29.2 °F - -36.4 °F 68% 29.77 in 9.0 mi South 2.3 mph - N/A   Clear
8:00 PM -31.0 °F -46.1 °F -38.2 °F 68% 29.77 in 9.0 mi South 4.6 mph - N/A   Clear
9:00 PM -29.2 °F - -38.2 °F 62% 29.76 in 9.0 mi SSW 2.3 mph - N/A   Clear
10:00 PM -31 °F - -39 °F 48% 29.77 in 9 mi SSW 3.5 mph - -  
10:00 PM -31.0 °F -43.3 °F -38.2 °F 68% 29.77 in 9.0 mi SSW 3.5 mph - N/A   Clear
11:00 PM -31.0 °F -43.3 °F -38.2 °F 68% 29.76 in 9.0 mi South 3.5 mph - N/A   Clear